Location: Biharia
(46.4333°N, 22.8000°E)
Time: 04:12:55
(UTC+00:00)

Cosmos 494 Rocket - Pass Details

Date: 29 May 2022
Orbit: 742 x 770 km, 74.1° (Epoch: 05 July)

Event Time Altitude Azimuth Distance (km) Brightness Sun altitude
Rises 20:46:33 0° 347° (NNW) 3,194 8.8 -18.2°
Reaches altitude 10° 20:49:25 10° 2° (N) 2,265 7.4 -18.4°
Maximum altitude 20:53:23 22° 53° (NE) 1,589 5.8 -18.7°
Enters shadow 20:56:33 13° 98° (E) 2,045 5.9 -18.9°
